YAOGAN-30 Y (48424 NORAD) Tracking and Keplerian Element Data

This shows tracking and keplerian element data for the satellite.

Feedback or suggestion? Click here.




ElementValue
Catalog48424
NameYAOGAN-30 Y
Epoch Orbit637
Epoch Day169.55468513
Epoch Year2021
RAAN217.3919
Inclination34.9977
Eccentricity0.0005792
Argument of Perigee246.4679
Mean Anonmoly113.5439
Mean Motion14.89938426
Decay Rate1.44E-06
L11 48424U 21039B 21169.55468513 .00000144 00000-0 17418-4 0 9997
L22 48424 34.9977 217.3919 0005792 246.4679 113.5439 14.89938426 6372

Live tracking and technical data element details for YAOGAN-30 Y (NORAD 48424). YAOGAN-30 Y can be tracked NOW for your location showing map with azimuth and elevation plus other details from your city location.

Track the satellite on the map from your city or location and see movement details for azimuth, elevation, latitude, longitude, range, height, and movement on the map or in text.







IsCatalogInMostPopularTable: catalog: 48424, numindb: 20
Update: records affected: 1



GetName: 48424 YAOGAN-30 Y

Hit Count: updated at: Mon, 21 Jun 2021 04:42:30 GMT